This is the latest recevied weather packets stored in our database for station/object K8FJG-13. If no packets are shown the sender has not sent any weather packets the latest 10 day(s).
| Time | Temp. | Humidity | Pressure | Rain* | Wind** | Luminosity | Snow |
|---|---|---|---|---|---|---|---|
| 1777219243 | 11.67° C | 79% | 975.7 hPa | - | - | - | - |
| 1777218640 | 11.67° C | 78% | 975.6 hPa | - | - | - | - |
| 1777218037 | 12.22° C | 77% | 975.5 hPa | - | - | - | - |
| 1777217433 | 11.11° C | 80% | 975.5 hPa | - | - | - | - |
| 1777216830 | 10.56° C | 81% | 975.3 hPa | - | - | - | - |
| 1777216227 | 10.56° C | 83% | 975.3 hPa | - | - | - | - |
| 1777215624 | 10° C | 85% | 975.2 hPa | - | - | - | - |
| 1777215021 | 9.44° C | 86% | 975.1 hPa | - | - | - | - |
| 1777214418 | 9.44° C | 89% | 975 hPa | - | - | - | - |
| 1777213814 | 9.44° C | 94% | 974.9 hPa | - | - | - | - |
| 1777213211 | 8.89° C | 97% | 974.8 hPa | - | - | - | - |
| 1777212608 | 8.33° C | 98% | 974.9 hPa | - | - | - | - |
| 1777212005 | 7.78° C | 98% | 974.9 hPa | - | - | - | - |
| 1777211402 | 7.78° C | 98% | 974.9 hPa | - | - | - | - |
| 1777210799 | 7.22° C | 98% | 975 hPa | - | - | - | - |
| 1777210195 | 7.22° C | 98% | 974.9 hPa | - | - | - | - |
| 1777209592 | 7.22° C | 98% | 974.9 hPa | - | - | - | - |
| 1777208989 | 6.67° C | 98% | 974.8 hPa | - | - | - | - |
| 1777208386 | 6.67° C | 98% | 974.7 hPa | - | - | - | - |
| 1777207783 | 6.67° C | 98% | 974.7 hPa | - | - | - | - |
| 1777207180 | 6.67° C | 98% | 974.6 hPa | - | - | - | - |
| 1777206576 | 6.67° C | 98% | 974.6 hPa | - | - | - | - |
| 1777205973 | 6.11° C | 98% | 974.6 hPa | - | - | - | - |
| 1777205370 | 6.11° C | 98% | 974.5 hPa | - | - | - | - |
| 1777204767 | 6.11° C | 98% | 974.4 hPa | - | - | - | - |
* Rain since midnight (hover to see other rain measurements)
** Current wind speed in m/s (hover to see current wind gust speed)